www.pogodaiklimat.ru

Погода и климат >> Архив погоды >> Россия >> Якутия >> Хабардино


ПОГОДА в Хабардино

  • Прогноз погоды в Хабардино
  • Монитор погоды в Хабардино

АРХИВ ПОГОДЫ в Хабардино

Время (UTC), дата Ветер
(напр.,м/с)
 
Видим.   Явления Облачность Т
(С)
Тd
(С)
f
(%)
Тe
(С)
Тes
(С)
Комфортность P
(гПа)
Po
(гПа)
Тmin
(С)
Tmax
(С)
R
(мм)
R24
(мм)
S
(см)
00 17.01 штиль 0 20 км {снег} 9/0
[Ac trans Ci fib]
-35.8 -38.1 79 -36 -36 опасность
обморожения
1016.9 980.8 -36.6 0.8 30
03 17.01 штиль 0 50 км 9/0
[Ac trans Ci fib]
-37.9 -40.3 78 -38 -38 опасность
обморожения
1016.4 980.0
06 17.01 штиль 0 50 км 10/0
[Cs]
-34.0 -36.2 80 -34 -34 опасность
обморожения
1015.5 979.7
09 17.01 штиль 0 20 км 10/0
[Ac trans Cs]
-31.6 -33.9 80 -32 -32 опасность
обморожения
1015.0 979.5
12 17.01 10 км слаб. снег 10/0
[Ac trans Cs]
-31.5 -33.3 84 1015.6 980.1 -31.5 0.3
15 17.01 штиль 0 20 км {снег} 8/0
[Ci fib]
-34.2 -36.5 80 -34 -34 опасность
обморожения
1016.2 980.4
18 17.01 штиль 0 20 км {снег} 8/0
[Ci fib]
-35.9 -38.1 80 -36 -36 опасность
обморожения
1016.7 980.6
21 17.01 Ю 1 20 км 9/0
[Ci fib]
-39.5 -41.7 79 -45 -45 опасность
обморожения
1019.0 982.3
00 18.01 штиль 0 20 км 6/0
[Ci fib]
-38.3 -40.3 81 -38 -38 опасность
обморожения
1020.1 983.6 -39.6 0.0 30
03 18.01 штиль 0 50 км 4/0
[Ci fib]
-41.6 -43.8 79 -42 -41 опасность
обморожения
1023.2 986.0
06 18.01 штиль 0 50 км 4/0
[Ci fib]
-39.5 -41.7 79 -40 -39 опасность
обморожения
1023.9 987.0
09 18.01 штиль 0 20 км 3/0
[Ci fib]
-41.2 -43.2 81 -41 -41 опасность
обморожения
1025.7 988.5
12 18.01 штиль 0 20 км ясно -43.6 -45.7 80 -44 -44 опасность
обморожения
1027.4 989.7 -38.3
15 18.01 С 1 20 км 6/0
[Ci fib]
-44.5 -46.4 81 -50 -50 опасность
обморожения
1027.3 989.4
18 18.01 В 1 20 км 8/0
[Ci fib]
-45.0 -47.2 78 -51 -51 опасность
обморожения
1026.9 989.0
21 18.01 В 1 10 км слаб. снег 10/0
[Ac trans Cs]
-35.4 -37.7 79 -40 -40 опасность
обморожения
1020.5 984.5
00 19.01 В 1 10 км слаб. снег 10/0
[Ac As]
-32.2 -34.6 79 -37 -37 опасность
обморожения
1017.6 982.1 -45.1 1 31
03 19.01 штиль 0 50 км {снег} 10/0
[Ac As]
-29.4 -31.1 85 -29 -29 1015.0 980.0
06 19.01 штиль 0 20 км слаб. снег 10/0
[Ac As]
-26.0 -27.8 85 -26 -26 1012.6 978.1
09 19.01 штиль 0 20 км {снег} 6/0
[Ci fib]
-29.5 -31.3 84 -30 -30 1012.7 977.6
12 19.01 штиль 0 20 км {снег} 4/0
[Ci fib]
-35.0 -37.4 79 -35 -35 опасность
обморожения
1013.1 977.3 -26.0 2
15 19.01 штиль 0 20 км ясно -37.0 -39.1 81 -37 -37 опасность
обморожения
1012.4 976.4
18 19.01 штиль 0 20 км ясно -38.7 -40.8 80 -39 -39 опасность
обморожения
1012.4 976.1
21 19.01 штиль 0 20 км 6/0
[Ci fib]
-36.5 -38.8 79 -37 -37 опасность
обморожения
1008.6 972.7
00 20.01 штиль 0 20 км 10/0
[Ac trans Cs]
-32.9 -34.5 85 -33 -33 опасность
обморожения
1005.6 970.4 -38.8 32
03 20.01 штиль 0 50 км 10/0
[Ac trans Cs]
-30.0 -32.4 79 -30 -30 1003.8 969.1
06 20.01 штиль 0 50 км {снег} 9/0
[Ac trans Ci fib]
-28.1 -30.5 80 -28 -28 1003.2 968.7
09 20.01 штиль 0 20 км 6/0
[Ac trans Ci fib]
-35.2 -37.4 80 -35 -35 опасность
обморожения
1005.2 969.7 -28.0 0.6
12 20.01 штиль 0 20 км 6/0
[Ac trans Ci fib]
-35.2 -37.4 80 -35 -35 опасность
обморожения
1005.2 969.7 -28.0 0.6
15 20.01 штиль 0 20 км 4/0
[Ci fib]
-36.9 -39.1 80 -37 -37 опасность
обморожения
1005.3 969.5
18 20.01 штиль 0 20 км 3/0
[Ci fib]
-38.1 -40.3 80 -38 -38 опасность
обморожения
1004.6 968.7
21 20.01 штиль 0 20 км 8/0
[Ci fib]
-36.7 -38.8 81 -37 -37 опасность
обморожения
1004.0 968.2
00 21.01 штиль 0 20 км 4/0
[Ci fib]
-38.2 -40.3 80 -38 -38 опасность
обморожения
1004.4 968.5 -38.3 32
03 21.01 штиль 0 50 км 4/0
[Ci fib]
-40.0 -42.2 79 -40 -40 опасность
обморожения
1005.6 969.3
06 21.01 штиль 0 50 км 3/0
[Ci fib]
-35.9 -38.1 80 -36 -36 опасность
обморожения
1006.0 970.4
09 21.01 штиль 0 20 км 4/0
[Ci fib]
-38.5 -40.8 79 -39 -39 опасность
обморожения
1009.6 973.4
12 21.01 штиль 0 20 км ясно -39.4 -41.7 79 -39 -39 опасность
обморожения
1012.9 976.5 -35.9
15 21.01 штиль 0 20 км 6/0
[Ci fib]
-40.6 -42.7 80 -41 -41 опасность
обморожения
1015.8 979.1
18 21.01 штиль 0 20 км {снег} 10/0
[Cs]
-40.0 -42.2 79 -40 -40 опасность
обморожения
1017.8 981.0
21 21.01 штиль 0 20 км 10/0
[Cs]
-38.9 -41.2 79 -39 -39 опасность
обморожения
1022.0 985.3
00 22.01 штиль 0 20 км 4/0
[Ci fib]
-41.0 -43.2 79 -41 -41 опасность
обморожения
1025.5 988.4 -41.0 0.4 32
03 22.01 штиль 0 50 км 3/0
[Ci fib]
-43.5 -45.7 79 -44 -43 опасность
обморожения
1028.5 990.8
06 22.01 штиль 0 50 км ясно -40.4 -42.7 78 -40 -40 опасность
обморожения
1029.3 992.2
09 22.01 штиль 0 20 км ясно -42.9 -45.0 80 -43 -43 опасность
обморожения
1032.8 995.0
12 22.01 штиль 0 20 км ясно -44.5 -46.4 81 -45 -45 опасность
обморожения
1034.3 996.2 -40.4
15 22.01 штиль 0 20 км ясно -45.6 -48.1 76 -46 -46 опасность
обморожения
1035.1 996.8
18 22.01 штиль 0 20 км 3/0
[Ci fib]
-46.7 -49.0 77 -47 -47 опасность
обморожения
1035.7 997.3
21 22.01 штиль 0 20 км ясно -47.5 -50.0 75 -48 -48 опасность
обморожения
1036.2 997.5
00 23.01 штиль 0 20 км 3/0
[Ci fib]
-47.4 -49.0 83 -47 -47 опасность
обморожения
1036.0 997.5 -47.6 32
03 23.01 штиль 0 50 км 3/0
[Ci fib]
-47.5 -50.0 75 -48 -47 опасность
обморожения
1036.4 997.7
06 23.01 штиль 0 50 км 4/0
[Ci fib]
-45.0 -47.2 78 -45 -45 опасность
обморожения
1035.2 997.1
09 23.01 штиль 0 50 км 6/0
[Ci fib]
-44.6 -46.4 82 -45 -45 опасность
обморожения
1035.8 997.6
12 23.01 штиль 0 20 км 6/0
[Ci fib]
-44.9 -47.2 78 -45 -45 опасность
обморожения
1036.0 997.8 -44.6
15 23.01 штиль 0 20 км 8/0
[Ci fib]
-44.5 -46.4 81 -45 -45 опасность
обморожения
1035.5 997.4
18 23.01 штиль 0 20 км 4/0
[Ci fib]
-45.2 -47.2 80 -45 -45 опасность
обморожения
1034.9 996.8

 

Местоположение метеостанции Хабардино (Якутия, Россия): широта 64.60 долгота 112.50 высота над уровнем моря 251 м.

В архиве по умолчанию представлена погода в Хабардино за последнюю неделю. Архивные данные за месяц целиком и за предыдущие месяцы, начиная с января 2011 года, Вы можете получить, выбрав интересующий диапазон дат из раскрывающегося списка и нажав кнопку "Ввод!".


*Определитесь, кто Вы:
робот инопланетянин человек

Внимание! Время в таблицах - всемирное. Для получения местного времени необходимо прибавить поправку, которая равна 9 ч.

Смотрите также архив погоды в соседних городах и на ближайших метеорологических станциях:

Погода в Айхале (Якутия, Россия) (156 км)
Погода в Чернышевском (Якутия, Россия) (175 км)
Погода в Шелагонцах (Якутия, Россия) (200 км)
Погода в Чумпуруке (Якутия, Россия) (215 км)
Погода в Полярном (Якутия, Россия) (237 км)
Погода в Туой-Хае (Якутия, Россия) (239 км)
Погода в Мирном (Якутия, Россия) (239 км)
Погода в Эйке (Якутия, Россия) (278 км)
Погода в Крестяхе (Якутия, Россия) (315 км)
Погода в Нюрбе (Якутия, Россия) (319 км)

Пояснения к столбцам:

Ветер - указаны скорость ветра в м/с - средняя за 10 мин, порывы в срок и между сроками (в фигурных скобках) и направление, откуда дует ветер: С - северный, СВ - северо-восточный, В - восточный, ЮВ - юго-восточный, Ю - южный, ЮЗ - юго-западный, З - западный, СЗ - северо-западный.
Видимость - горизонтальная дальность видимости в метрах или километрах. При видимости от 1 до 10 км при отсутствии осадков обычно наблюдается дымка, при ухудшении видимости до 1 км и менее - туман. В сухую погоду видимость может ухудшаться дымом, пылью или мглою.
Явления - указаны атмосферные явления, наблюдавшиеся в срок или в последний час перед сроком; фигурными скобками обозначены явления, наблюдавшиеся между сроками (за 1-3 часа до срока); квадратными скобками обозначены град или гололедные отложения с указанием их диаметра в мм.
Облачность - указаны через наклонную черту общая и нижняя облачность в баллах и высота нижней границы облаков в метрах; квадратными скобками обозначены формы облаков: Ci - перистые, Cs - перисто-слоистые, Cc - перисто-кучевые, Ac - высококучевые, As - высокослоистые, Sc - слоисто-кучевые, Ns - слоисто-дождевые, Cu - кучевые, Cb - кучево-дождевые. Подробнее классификацию облаков см. в Атласе облаков (PDF).
T - Температура воздуха - температура, измеренная на высоте 2 м над землей.
Td - Температура точки росы - температура, при понижении до которой содержащийся в воздухе водяной пар достигнет насыщения.
f - Относительная влажность воздуха - влажноcть воздуха, измеренная на высоте 2 м над землей.
Te - Эффективная температура - температура, которую ощущает одетый по сезону человек в тени. Характеристика душности погоды. При расчете учитывается влияние влажности воздуха и скорости ветра на теплоощущения человека.
Tes - Эффективная температура на солнце - температура, которую ощущает человек, с поправкой на солнечный нагрев. Характеристика знойности погоды. Зависит от высоты солнца над горизонтом, облачности и скорости ветра. Ночью, в пасмурную погоду, а также при ветре 12 м/с и более поправка равна нулю.
P - Атмосферное давление - приведенное к уровню моря атмосферное давление.
Po - Атмосферное давление - измеренное на уровне метеостанции атмосферное давление.
Tmin - Минимальная температура - минимум температуры воздуха на высоте 2 м над землей.
Tmax - Максимальная температура - максимум температуры воздуха на высоте 2 м над землей.
R - Количество осадков - Количество выпавших осадков за период времени, мм. При наведении курсора мыши на число - период времени, за который выпало указанное количество осадков.
R24 - Количество осадков - Количество выпавших осадков за 24 часа, мм.
S - Снежный покров - Высота снежного покрова, см. При наведении курсора мыши на число - состояние снежного покрова и степень покрытия местности в баллах.